When you browse on this site, cookies collect data to enhance your experience and personalize the content and advertising you see.
Visit our Privacy Policy to learn more. By continuing to use the site, you agree to this use of cookies and data.
  • In Sweden
  • List of Countries
  • For 7 days
  • Water Temperature
  • Weather Map
  • Weather Widgets
  • user-avatar
    Login

    Hourly Weather Vorohta

    Today, 31 May, Sunday

    Time Temperature Precipitation Wind Pressure Humidity
    00:00 +5°C° 0.3 mm 6 mps 680 mmHg 100%
    01:00 +5°C° 0.3 mm 7 mps 679 mmHg 100%
    02:00 +6°C° 0 mm 4 mps 680 mmHg 98%
    03:00 +3°C° 0 mm 7 mps 680 mmHg 100%
    04:00 +2°C° 0.4 mm 8 mps 679 mmHg 100%
    05:00 +2°C° 0.5 mm 9 mps 679 mmHg 100%
    06:00 +2°C° 0.7 mm 9 mps 678 mmHg 100%
    07:00 +2°C° 0.8 mm 9 mps 678 mmHg 100%
    08:00 +4°C° 0.7 mm 8 mps 679 mmHg 100%
    09:00 +4°C° 1.9 mm 8 mps 679 mmHg 100%
    10:00 +4°C° 0.4 mm 8 mps 679 mmHg 100%
    11:00 +5°C° 0.2 mm 8 mps 679 mmHg 100%
    12:00 +5°C° 0.2 mm 7 mps 680 mmHg 100%
    13:00 +6°C° 0.1 mm 7 mps 680 mmHg 99%
    14:00 +8°C° 0.1 mm 6 mps 681 mmHg 100%
    15:00 +8°C° 0.2 mm 6 mps 681 mmHg 100%
    16:00 +8°C° 0 mm 5 mps 681 mmHg 100%
    17:00 +10°C° 0 mm 4 mps 681 mmHg 100%
    18:00 +9°C° 0.4 mm 3 mps 681 mmHg 100%
    19:00 +9°C° 1.8 mm 3 mps 681 mmHg 100%
    20:00 +9°C° 1.5 mm 2 mps 681 mmHg 100%
    21:00 +9°C° 1.5 mm 3 mps 681 mmHg 100%
    22:00 +9°C° 1.2 mm 2 mps 681 mmHg 100%
    23:00 +9°C° 0.7 mm 3 mps 681 mmHg 100%

    Tomorrow, 1 June, Monday

    Time Temperature Precipitation Wind Pressure Humidity
    00:00 +9°C° 0.4 mm 2 mps 681 mmHg 100%
    01:00 +9°C° 1 mm 3 mps 682 mmHg 100%
    02:00 +9°C° 1.3 mm 3 mps 682 mmHg 100%
    03:00 +8°C° 0 mm 2 mps 682 mmHg 100%
    04:00 +8°C° 0.4 mm 2 mps 681 mmHg 100%
    05:00 +9°C° 2.1 mm 3 mps 681 mmHg 100%
    06:00 +7°C° 2.7 mm 5 mps 681 mmHg 100%
    07:00 +7°C° 2.8 mm 6 mps 682 mmHg 100%
    08:00 +7°C° 3.1 mm 6 mps 683 mmHg 100%
    09:00 +7°C° 0.3 mm 6 mps 683 mmHg 100%
    10:00 +7°C° 0.9 mm 6 mps 684 mmHg 100%
    11:00 +8°C° 0.9 mm 6 mps 684 mmHg 100%
    12:00 +9°C° 0.5 mm 7 mps 684 mmHg 100%
    13:00 +9°C° 0.3 mm 7 mps 684 mmHg 100%
    14:00 +9°C° 0.2 mm 7 mps 684 mmHg 100%
    15:00 +9°C° 0.2 mm 7 mps 684 mmHg 100%
    16:00 +9°C° 0 mm 7 mps 684 mmHg 100%
    17:00 +8°C° 0.2 mm 6 mps 684 mmHg 100%
    18:00 +7°C° 0.1 mm 5 mps 684 mmHg 100%
    19:00 +7°C° 0.1 mm 5 mps 684 mmHg 100%
    20:00 +6°C° 0.3 mm 5 mps 684 mmHg 100%
    21:00 +5°C° 0.9 mm 5 mps 684 mmHg 100%
    22:00 +5°C° 0.1 mm 5 mps 684 mmHg 100%
    23:00 +4°C° 0 mm 4 mps 684 mmHg 100%

    Day after tomorrow, 2 June, Tuesday

    Time Temperature Precipitation Wind Pressure Humidity
    00:00 +3°C° 0 mm 5 mps 684 mmHg 100%
    01:00 +3°C° 0 mm 5 mps 683 mmHg 100%
    02:00 +3°C° 0 mm 5 mps 683 mmHg 100%
    03:00 +3°C° 0 mm 4 mps 682 mmHg 100%
    04:00 +3°C° 0 mm 3 mps 682 mmHg 100%
    05:00 +3°C° 0 mm 3 mps 682 mmHg 100%
    06:00 +3°C° 0 mm 3 mps 681 mmHg 100%
    07:00 +4°C° 0 mm 3 mps 682 mmHg 100%
    08:00 +4°C° 0 mm 4 mps 682 mmHg 100%
    09:00 +5°C° 0 mm 5 mps 682 mmHg 100%
    10:00 +6°C° 0 mm 5 mps 682 mmHg 100%
    11:00 +7°C° 0 mm 5 mps 682 mmHg 96%
    12:00 +9°C° 0 mm 5 mps 682 mmHg 93%
    13:00 +10°C° 0 mm 5 mps 682 mmHg 89%
    14:00 +10°C° 0 mm 6 mps 681 mmHg 88%
    15:00 +9°C° 0 mm 7 mps 681 mmHg 95%
    16:00 +9°C° 0.8 mm 5 mps 680 mmHg 99%
    17:00 +9°C° 0.1 mm 6 mps 680 mmHg 96%
    18:00 +8°C° 0.8 mm 5 mps 679 mmHg 100%
    19:00 +7°C° 0 mm 5 mps 679 mmHg 97%
    20:00 +7°C° 0 mm 4 mps 679 mmHg 99%
    21:00 +8°C° 0 mm 3 mps 678 mmHg 100%
    22:00 +7°C° 0 mm 3 mps 678 mmHg 100%
    23:00 +7°C° 0.3 mm 2 mps 678 mmHg 100%

    3 June, Wednesday

    Time Temperature Precipitation Wind Pressure Humidity
    00:00 +6°C° 1.5 mm 2 mps 678 mmHg 100%
    01:00 +6°C° 1.3 mm 2 mps 677 mmHg 100%
    02:00 +6°C° 0.3 mm 2 mps 677 mmHg 100%
    03:00 +5°C° 0.2 mm 3 mps 677 mmHg 100%
    04:00 +5°C° 0.2 mm 3 mps 677 mmHg 100%
    05:00 +6°C° 0.3 mm 2 mps 677 mmHg 100%
    06:00 +5°C° 0.1 mm 3 mps 677 mmHg 100%
    07:00 +7°C° 0 mm 2 mps 678 mmHg 100%
    08:00 +8°C° 0 mm 3 mps 678 mmHg 100%
    09:00 +9°C° 0.1 mm 3 mps 678 mmHg 99%
    10:00 +10°C° 0.2 mm 4 mps 678 mmHg 100%
    11:00 +10°C° 0.4 mm 4 mps 678 mmHg 100%
    12:00 +10°C° 0.2 mm 5 mps 679 mmHg 96%
    13:00 +9°C° 0.8 mm 5 mps 678 mmHg 100%
    14:00 +12°C° 0.3 mm 3 mps 678 mmHg 96%
    15:00 +11°C° 0.9 mm 4 mps 678 mmHg 100%
    16:00 +11°C° 0.2 mm 6 mps 678 mmHg 95%
    17:00 +11°C° 0.6 mm 4 mps 678 mmHg 100%
    18:00 +11°C° 0.9 mm 3 mps 678 mmHg 100%
    19:00 +12°C° 0.7 mm 2 mps 678 mmHg 100%
    20:00 +9°C° 4.3 mm 2 mps 678 mmHg 100%
    21:00 +10°C° 0.8 mm 1 mps 678 mmHg 100%
    22:00 +10°C° 0 mm 1 mps 679 mmHg 100%
    23:00 +9°C° 0 mm 2 mps 679 mmHg 100%

    4 June, Thursday

    Time Temperature Precipitation Wind Pressure Humidity
    00:00 +8°C° 0 mm 2 mps 679 mmHg 100%
    01:00 +8°C° 0 mm 2 mps 678 mmHg 95%
    02:00 +8°C° 0 mm 3 mps 679 mmHg 98%
    03:00 +8°C° 0 mm 3 mps 678 mmHg 100%
    04:00 +7°C° 0 mm 4 mps 679 mmHg 100%
    05:00 +7°C° 0 mm 4 mps 679 mmHg 100%
    06:00 +8°C° 0 mm 4 mps 679 mmHg 100%
    07:00 +9°C° 0 mm 5 mps 680 mmHg 100%
    08:00 +9°C° 0 mm 5 mps 680 mmHg 100%
    09:00 +10°C° 0 mm 6 mps 680 mmHg 100%
    10:00 +10°C° 0 mm 6 mps 681 mmHg 100%
    11:00 +11°C° 0 mm 6 mps 681 mmHg 99%
    12:00 +13°C° 0 mm 6 mps 682 mmHg 98%
    13:00 +13°C° 0 mm 6 mps 682 mmHg 93%
    14:00 +14°C° 0 mm 6 mps 681 mmHg 89%
    15:00 +14°C° 0 mm 6 mps 681 mmHg 92%
    16:00 +14°C° 0 mm 6 mps 681 mmHg 91%
    17:00 +14°C° 0 mm 6 mps 681 mmHg 92%
    18:00 +14°C° 0 mm 5 mps 681 mmHg 93%
    19:00 +13°C° 0 mm 4 mps 680 mmHg 92%
    20:00 +12°C° 0 mm 3 mps 680 mmHg 98%
    21:00 +13°C° 0 mm 2 mps 680 mmHg 99%
    22:00 +13°C° 0 mm 2 mps 680 mmHg 93%
    23:00 +13°C° 0 mm 2 mps 680 mmHg 95%

    5 June, Friday

    Time Temperature Precipitation Wind Pressure Humidity
    00:00 +12°C° 0 mm 3 mps 679 mmHg 97%
    01:00 +12°C° 0 mm 4 mps 678 mmHg 100%
    02:00 +12°C° 0.3 mm 4 mps 677 mmHg 100%
    03:00 +13°C° 0.4 mm 5 mps 677 mmHg 100%
    04:00 +13°C° 0.5 mm 6 mps 676 mmHg 100%
    05:00 +12°C° 0.1 mm 9 mps 676 mmHg 100%
    06:00 +12°C° 0.3 mm 9 mps 676 mmHg 100%
    07:00 +12°C° 0.5 mm 8 mps 677 mmHg 100%
    08:00 +12°C° 0.2 mm 7 mps 678 mmHg 100%
    09:00 +11°C° 0.1 mm 7 mps 679 mmHg 100%
    10:00 +14°C° 0.1 mm 7 mps 680 mmHg 99%
    11:00 +15°C° 0 mm 6 mps 681 mmHg 97%
    12:00 +15°C° 0 mm 7 mps 681 mmHg 94%
    13:00 +15°C° 0 mm 6 mps 682 mmHg 93%
    14:00 +15°C° 0 mm 7 mps 682 mmHg 89%
    15:00 +15°C° 0 mm 6 mps 682 mmHg 88%
    16:00 +15°C° 0 mm 7 mps 682 mmHg 99%
    17:00 +15°C° 0 mm 6 mps 682 mmHg 99%
    18:00 +14°C° 0 mm 6 mps 682 mmHg 99%
    19:00 +14°C° 0 mm 5 mps 682 mmHg 100%
    20:00 +13°C° 0 mm 5 mps 682 mmHg 100%
    21:00 +12°C° 0 mm 4 mps 682 mmHg 100%
    22:00 +12°C° 0 mm 4 mps 683 mmHg 100%
    23:00 +12°C° 0 mm 5 mps 683 mmHg 100%
    Show more